This is the latest recevied weather packets stored in our database for station/object K7NDG. If no packets are shown the sender has not sent any weather packets the latest 10 day(s).
| Time | Temp. | Humidity | Pressure | Rain* | Wind** | Luminosity | Snow |
|---|---|---|---|---|---|---|---|
| 1777432498 | 10.56° C | 67% | 1024.7 hPa | 0 mm | - | 1 W/m² | - |
| 1777432195 | 11.11° C | 67% | 1024.6 hPa | 0 mm | - | 4 W/m² | - |
| 1777431894 | 11.11° C | 67% | 1024.7 hPa | 0 mm | - | 7 W/m² | - |
| 1777431590 | 11.11° C | 67% | 1024.8 hPa | 0 mm | - | 11 W/m² | - |
| 1777431286 | 11.11° C | 67% | 1024.8 hPa | 0 mm | - | 12 W/m² | - |
| 1777430982 | 11.11° C | 66% | 1024.7 hPa | 0 mm | - | 13 W/m² | - |
| 1777430679 | 11.11° C | 66% | 1024.7 hPa | 0 mm | - | 15 W/m² | - |
| 1777430374 | 11.11° C | 66% | 1024.7 hPa | 0 mm | - | 18 W/m² | - |
| 1777430069 | 11.11° C | 66% | 1024.8 hPa | 0 mm | - | 21 W/m² | - |
| 1777429766 | 11.67° C | 66% | 1024.7 hPa | 0 mm | - | 26 W/m² | - |
| 1777429462 | 11.67° C | 66% | 1024.7 hPa | 0 mm | - | 29 W/m² | - |
| 1777429158 | 11.67° C | 65% | 1024.6 hPa | 0 mm | - | 34 W/m² | - |
| 1777428854 | 11.67° C | 66% | 1024.9 hPa | 0 mm | - | 39 W/m² | - |
| 1777428551 | 11.67° C | 65% | 1024.7 hPa | 0 mm | - | 42 W/m² | - |
| 1777428246 | 11.67° C | 65% | 1024.8 hPa | 0 mm | - | 49 W/m² | - |
| 1777427942 | 12.22° C | 64% | 1024.7 hPa | 0 mm | - | 53 W/m² | - |
| 1777427638 | 12.22° C | 65% | 1024.6 hPa | 0 mm | - | 56 W/m² | - |
| 1777427335 | 12.22° C | 65% | 1024.6 hPa | 0 mm | - | 64 W/m² | - |
| 1777427032 | 12.22° C | 64% | 1024.5 hPa | 0 mm | - | 71 W/m² | - |
| 1777426729 | 12.22° C | 65% | 1024.6 hPa | 0 mm | - | 55 W/m² | - |
| 1777426426 | 12.22° C | 64% | 1024.6 hPa | 0 mm | - | 71 W/m² | - |
| 1777426122 | 12.78° C | 65% | 1024.5 hPa | 0 mm | - | 83 W/m² | - |
| 1777425822 | 12.78° C | 64% | 1024.6 hPa | 0 mm | - | 88 W/m² | - |
| 1777425518 | 12.78° C | 63% | 1024.6 hPa | 0 mm | - | 92 W/m² | - |
| 1777425213 | 12.78° C | 63% | 1024.5 hPa | 0 mm | - | 102 W/m² | - |
* Rain latest hour (hover to see other rain measurements)
** Current wind speed in m/s (hover to see current wind gust speed)